Regional Weather Roundup
Issued by NWS

Home | Current Version | Previous Version | Text Only | Print | Product List | Glossary On
Versions: 1 2 3 4 5 6 7 8 9 10 11 12 13 14 15 16 17 18 19 20 21 22 23 24 25 26 27 28 29 30 31 32 33 34 35 36 37 38 39 40 41 42 43 44 45 46 47 48 49 50
000
ASUS43 KMKX 231311
RWRWI

WISCONSIN REGIONAL WEATHER ROUNDUP
NATIONAL WEATHER SERVICE MILWAUKEE/SULLIVAN WI
800 AM CDT SUN APR 23 2017

NOTE: "FAIR" INDICATES FEW OR NO CLOUDS BELOW 12,000 FEET WITH NO
SIGNIFICANT WEATHER AND/OR OBSTRUCTIONS TO VISIBILITY.

WIZ001-002-006>008-014>016-023>028-231400-
NORTHWEST WISCONSIN

CITY           SKY/WX    TMP DP  RH WIND       PRES   REMARKS
SUPERIOR ARPT  LGT RAIN  33  33  99 E7        30.22R WCI  27
ASHLAND        LGT SNOW  33  32  96 NE7       30.22R FOG     WCI  27
HAYWARD        LGT RAIN  39  35  86 NE13      30.17R WCI  31
SIREN          LGT RAIN  42  38  86 N8        30.14R
CUMBERLAND     CLOUDY    43  36  75 NE13      30.12R
RICE LAKE      CLOUDY    46  38  75 NE13G21   30.13R
CHETEK         CLOUDY    46  39  75 NE7       30.12R
LADYSMITH      CLOUDY    44  38  80 N10G17    30.14R
EAU CLAIRE     SUNNY     50  39  66 N5        30.09R
MENOMONIE      SUNNY     49  40  69 CALM      30.09S
NEW RICHMOND   PTSUNNY   46  39  77 N8        30.11R
OSCEOLA        PTSUNNY   47  40  74 NE9       30.14S
$$

WIZ003>005-009-010-017-018-231400-
NORTH CENTRAL WISCONSIN

CITY           SKY/WX    TMP DP  RH WIND       PRES   REMARKS
MANITOWISH WTR CLOUDY    35  34  95 NE9G17    30.14R WCI  28
ARBOR VITAE    CLOUDY    39  35  84 NE8G16    30.12R WCI  34
WOODRUFF       CLOUDY    39  35  84 NE8G16    30.12R WCI  34
RHINELANDER    CLOUDY    45  39  79 N8        30.10R
EAGLE RIVER    CLOUDY    38  35  87 NE10      30.11R WCI  31
LAND O LAKES   CLOUDY    36  33  88 NE12      30.14R WCI  28
PHILLIPS       CLOUDY    40  39  95 NE10G17   30.11R WCI  34
TOMAHAWK       CLOUDY    44  38  78 N7        30.10R
MEDFORD        CLOUDY    46  37  69 NE6       30.08R
MERRILL        CLOUDY    46  38  73 N7        30.08R
$$

WIZ029-030-035-036-043>047-231400-
CENTRAL WISCONSIN

CITY           SKY/WX    TMP DP  RH WIND       PRES   REMARKS
WAUSAU         MOSUNNY   50  36  58 NW3       30.06R
MOSINEE        MOSUNNY   50  36  57 W5        30.09R
MARSHFIELD     SUNNY     50  36  58 W7        30.07R
STEVENS POINT  MOSUNNY   49  32  51 W5        30.09R
WAUPACA        SUNNY     54  36  49 SW3       30.08S
WAUTOMA        SUNNY     46  36  68 CALM      30.09S
WISC RAPIDS    SUNNY     51  35  54 SW6       30.09R
CAMP DOUGLAS   MOSUNNY   55  34  44 W12       30.09R
$$

WIZ011>013-019>022-031-037>040-048>050-231400-
NORTHEAST WISCONSIN

CITY           SKY/WX    TMP DP  RH WIND       PRES   REMARKS
ANTIGO         MOSUNNY   45  37  74 CALM      30.07S
SHAWANO        PTSUNNY   52  34  51 CALM      30.09R
OCONTO         MOSUNNY   47  38  72 E13G22    30.10R
STURGEON BAY   MOSUNNY   47  37  68 NE10      30.12R
GREEN BAY      SUNNY     51  39  63 S5        30.07R
MANITOWOC      SUNNY     55  32  41 W8        30.09R
APPLETON       PTSUNNY   52  28  40 SW12      30.07R
CLINTONVILLE   MOSUNNY   52  32  46 NW5       30.08R
OSHKOSH        SUNNY     52  34  50 SW6       30.08S
$$

WIZ032>034-041-042-053>061-231400-
SOUTHWEST WISCONSIN

CITY           SKY/WX    TMP DP  RH WIND       PRES   REMARKS
LA CROSSE      SUNNY     52  41  66 S6        30.10S
SPARTA         SUNNY     42  37  83 CALM      30.11S
VIROQUA        SUNNY     50  33  53 SW7       30.11S
BOSCOBEL       SUNNY     45  39  79 SW3       30.14S
PRAIRIE DU CHI SUNNY     46  39  78 CALM      30.14S
PLATTEVILLE    MOSUNNY   48  37  64 SW5       30.15S
$$

WIZ056-057-062-063-064-067-068-231400-
SOUTH CENTRAL WISCONSIN

CITY           SKY/WX    TMP DP  RH WIND       PRES   REMARKS
REEDSBURG      SUNNY     46  37  71 CALM      30.11S
BARABOO/DELLS  SUNNY     52  34  50 SW5       30.11S
LONE ROCK      SUNNY     43  39  86 CALM      30.14S
MINERAL POINT  SUNNY     48  34  57 SW5       30.14R
MADISON        MOSUNNY   50  38  63 S5        30.12F
MIDDLETON      SUNNY     52  36  54 SW5       30.13S
WATERTOWN      SUNNY     50  36  58 SW5       30.12F
MONROE         SUNNY     52  32  46 SW10      30.14S
JANESVILLE     SUNNY     45  37  76 CALM      30.14S
$$

WIZ051-052-058>065-066-070>072-231400-
SOUTHEAST WISCONSIN

CITY           SKY/WX    TMP DP  RH WIND       PRES   REMARKS
MILWAUKEE      SUNNY     54  26  34 W7        30.13S
WAUKESHA       SUNNY     48  30  49 CALM      30.14R
MILWAUKEE/TIMM SUNNY     50  27  40 SW7       30.13F
RACINE         SUNNY     52  26  36 W8        30.15S
KENOSHA        SUNNY     49  34  56 W7        30.14S
FOND DU LAC    SUNNY     50  33  52 SW7       30.10S
SHEBOYGAN      SUNNY     51  36  56 SW7       30.10S HAZE
WEST BEND      SUNNY     52  30  43 SW7       30.11S
JUNEAU         SUNNY     46  36  68 S3        30.12F
$$

LSZ147-162-231400-
LAKE SUPERIOR

STATION/POSITION TIME  TEMP    WIND        PRES    WAVE
                       AIR SEA DIR/SP/G            HT/PER
                 (UTC) (F)     (DEG/KT/KT) (MB)    (FT/S)
DEVILS ISLAND    1200   33      40/ 17/ 18 1023.9R
PORT WING        1240   34      40/ 14/ 17 1023.7R
SAXON HARBOR     1240   35      30/ 10/ 14 1022.7R
$$

LMZ867-665-643>646-231400-
LAKE MICHIGAN

STATION/POSITION TIME  TEMP    WIND        PRES    WAVE
                       AIR SEA DIR/SP/G            HT/PER
                 (UTC) (F)     (DEG/KT/KT) (MB)    (FT/S)
CHAMBERS ISLAND  1230   40     360/ 16/ 19 1019.3R
N MID LAKE BUOY  1250   38 37  360/ 14/ 17 1020.9R   1/ 4
NORTHPORT PIER   1240   39     350/ 12/ 16 1020.0R
SISTER BAY       1151   43      20/ 14/ 18   N/A
KEWAUNEE LAKESHO 1248   54     250/  7/ 12 1017.7R
SHEBOYGAN LAKESH 1300   51     260/ 11/ 13 1019.0F
PORT WASHINGTON  1230   54     260/  8/ 12 1020.3F
MILWAUKEE LAKESH 1250   53     260/  7/  9   N/A
KENOSHA   LAKESH 1200   48     240/  6/  9 1020.7
$$

TC  - TEMPERATURE IN CELSIUS
VSB - VISIBILITY IN STATUTE MILES
WCI - WIND CHILL INDEX
HX  - HEAT INDEX




USA.gov is the U.S. government's official web portal to all federal, state and local government web resources and services.